HELIOS 1B

Last updated on Mon Sep 21 2026 00:02:09 GMT+0000 (Coordinated Universal Time)

1 25977U 99064A 26263.59230466 .00000741 00000+0 86667-4 0 9990 2 25977 98.1512 171.4526 0002173 110.8013 249.3436 14.88209635714246
UTC large
Height (km)
Speed (km/s)
/
Latitude / Longitude
Inclination (degrees)
Orbital Period (minutes)
Azimuth
Elevation
Range (km)
Doppler Factor

Next 0 passes for location: London (51.5072 / 0.1276)

No passes found over London.
HELIOS 1B